Regional Weather Roundup
Issued by NWS

Home | Current Version | Previous Version | Text Only | Print | Product List | Glossary Off
Versions: 1 2 3 4 5 6 7 8 9 10 11 12 13 14 15 16 17 18 19 20 21 22 23 24 25 26 27 28 29 30 31 32 33 34 35 36 37 38 39 40 41 42 43 44 45 46 47 48 49 50

000
ASUS44 KMEG 290810
RWRTN
TENNESSEE HOURLY STATE WEATHER ROUNDUP
NATIONAL WEATHER SERVICE MEMPHIS TN
300 AM CDT THU SEP 29 2016

TNZ002-004-019-021-049-052-054-088>092-290900-
WEST TENNESSEE

CITY           SKY/WX    TMP DP  RH WIND       PRES   REMARKS
MEMPHIS INTL   PTCLDY    58  47  66 N8        30.10S
NWS MEMPHIS      N/A     54 N/A N/A MISG        N/A
JACKSON          N/A    N/A N/A N/A MISG      30.10R
DYERSBURG      CLEAR    N/A N/A N/A MISG        N/A
UNION CITY     CLEAR     48  46  93 CALM      30.08S
PARIS          CLEAR     46  45  93 CALM      30.07S
HUNTINGDON     CLEAR     52  46  82 NW3       30.06S
LEXINGTON      CLEAR     48  46  93 CALM      30.07R
$$

TNZ008-025-027-028-033-062-065-066-290900-
NORTH MIDDLE TENNESSEE

CITY           SKY/WX    TMP DP  RH WIND       PRES   REMARKS
NASHVILLE      CLEAR     53  45  74 CALM      30.04S
PORTLAND       CLEAR     50  46  87 CALM      30.03R
CLARKSVILLE    PTCLDY    48  44  86 W6        30.04F
SMYRNA         PTCLDY    53  47  79 W8        30.04S
COOKEVILLE       N/A     46  46 100 CALM      30.00F VSB 1/4
GALLATIN       CLEAR     52  48  87 CALM      30.05S
CROSSVILLE     CLOUDY    53  50  89 NW5       30.01S
$$

TNZ061-075-076-078-094-096-097-290900-
SOUTH MIDDLE TENNESSEE

CITY           SKY/WX    TMP DP  RH WIND       PRES   REMARKS
FAYETTEVILLE   CLOUDY    55  48  76 N6        30.03R
TULLAHOMA      CLEAR     50  46  87 NW3       30.03F
WINCHESTER     PTCLDY    54  48  82 N6        30.02S
MCMINNVILLE    CLEAR     50  50 100 CALM      30.02S
COLUMBIA       CLEAR     52  52 100 CALM      30.04S
SHELBYVILLE    CLEAR     50  48  93 CALM      30.04S
$$

TNZ017-018-042-046-047-290900-
NORTHEAST TENNESSEE

CITY           SKY/WX    TMP DP  RH WIND       PRES   REMARKS
TRI CITIES     MOCLDY    57  51  80 N7        29.97S
ELIZABETHTON     N/A     52  50  93 CALM      29.97R
$$

TNZ012-013-036-069-073-074-290900-
CENTRAL EAST TENNESSEE

CITY           SKY/WX    TMP DP  RH WIND       PRES   REMARKS
KNOXVILLE      CLOUDY    63  55  75 N5        29.95F
OAK RIDGE      CLOUDY    61  53  75 CALM      29.98F
DOWNTOWN KNOXV CLEAR     61  57  88 CALM      29.96F
GATLINBURG     CLEAR     55  52  88 CALM      29.95F
MORRISTOWN     PTCLDY    59  54  82 CALM      29.95F
JACKSBORO      CLOUDY    57  55  94 CALM      30.01F
$$

TNZ083-085-099-290900-
SOUTHEAST TENNESSEE

CITY           SKY/WX    TMP DP  RH WIND       PRES   REMARKS
CHATTANOOGA    PTCLDY    60  51  72 NW8       29.98S
$$

SKY/WX REPORTED AS FAIR MEANS FEW OR NO CLOUDS BELOW
12 THOUSAND FEET.




USA.gov is the U.S. government's official web portal to all federal, state and local government web resources and services.